TSC189 LFPG-CYYZ

Flight info

Callsign TSC189
Flight time N/A
Altitude 30000
Route ELCOB UT300 SENLO DCT JSY DCT LIZAD DCT LESLU DCT TOBOR/M079F320 NATC ELSIR/N0457F340 N412A MIILS DCT LETAK IMEBA9
Aircraft A21N/M-SDE2E3FGHIRWXY/LB1

Departure

Time 2026-05-06 10:13
Airport Charles de Gaulle International Airport (LFPG)

Arrival

Time N/A
Airport Toronto Pearson International Airport (CYYZ)
Time Latitude Longitude Altitude Speed Heading
2026-05-06 08:52 49.01340 2.55468 360 ft 0 kts 355°
2026-05-06 10:00 49.01338 2.55468 360 ft 2 kts 355°
2026-05-06 10:00 49.01312 2.55471 360 ft 4 kts 354°
2026-05-06 10:00 49.01287 2.55480 364 ft 4 kts 335°
2026-05-06 10:00 49.01267 2.55502 365 ft 4 kts 298°
2026-05-06 10:01 49.01263 2.55526 363 ft 0 kts 264°
2026-05-06 10:03 49.01262 2.55513 362 ft 3 kts 264°
2026-05-06 10:04 49.01259 2.55473 362 ft 5 kts 264°
2026-05-06 10:04 49.01255 2.55406 360 ft 8 kts 266°
2026-05-06 10:04 49.01251 2.55312 360 ft 10 kts 265°
2026-05-06 10:04 49.01245 2.55191 360 ft 13 kts 265°
2026-05-06 10:05 49.01238 2.55048 365 ft 14 kts 269°
2026-05-06 10:05 49.01299 2.54958 360 ft 14 kts 343°
2026-05-06 10:05 49.01393 2.54920 360 ft 14 kts 346°
2026-05-06 10:05 49.01490 2.54899 366 ft 14 kts 354°
2026-05-06 10:06 49.01590 2.54885 362 ft 14 kts 355°
2026-05-06 10:06 49.01690 2.54873 360 ft 15 kts 355°
2026-05-06 10:06 49.01793 2.54860 360 ft 15 kts 351°
2026-05-06 10:06 49.01844 2.54803 360 ft 8 kts 279°
2026-05-06 10:07 49.01841 2.54710 360 ft 10 kts 264°
2026-05-06 10:07 49.01834 2.54591 360 ft 12 kts 265°
2026-05-06 10:07 49.01827 2.54462 360 ft 13 kts 265°
2026-05-06 10:07 49.01820 2.54317 362 ft 14 kts 265°
2026-05-06 10:08 49.01812 2.54165 365 ft 15 kts 265°
2026-05-06 10:08 49.01803 2.53998 360 ft 16 kts 265°
2026-05-06 10:08 49.01794 2.53826 363 ft 17 kts 266°
2026-05-06 10:08 49.01784 2.53643 360 ft 18 kts 265°
2026-05-06 10:09 49.01773 2.53451 363 ft 19 kts 265°
2026-05-06 10:09 49.01761 2.53250 360 ft 19 kts 264°
2026-05-06 10:09 49.01750 2.53042 361 ft 20 kts 266°
2026-05-06 10:09 49.01739 2.52825 366 ft 21 kts 265°
2026-05-06 10:10 49.01728 2.52600 363 ft 22 kts 266°
2026-05-06 10:10 49.01715 2.52367 365 ft 23 kts 265°
2026-05-06 10:10 49.01702 2.52125 367 ft 23 kts 266°
2026-05-06 10:10 49.01689 2.51873 361 ft 24 kts 265°
2026-05-06 10:11 49.01674 2.51612 360 ft 25 kts 265°
2026-05-06 10:11 49.01663 2.51397 360 ft 14 kts 265°
2026-05-06 10:11 49.01706 2.51278 364 ft 15 kts 348°
2026-05-06 10:11 49.01794 2.51266 360 ft 12 kts 355°
2026-05-06 10:12 49.01877 2.51256 360 ft 12 kts 355°
2026-05-06 10:12 49.01963 2.51258 361 ft 13 kts 19°
2026-05-06 10:12 49.02033 2.51336 360 ft 13 kts 37°
2026-05-06 10:12 49.02071 2.51476 359 ft 25 kts 86°
2026-05-06 10:13 49.02108 2.52145 364 ft 101 kts 85°
2026-05-06 10:13 49.02187 2.53597 360 ft 173 kts 82°
2026-05-06 10:13 49.02273 2.55519 1061 ft 184 kts 82°
2026-05-06 10:13 49.02379 2.57500 1949 ft 192 kts 82°
2026-05-06 10:14 49.02499 2.59602 2392 ft 205 kts 80°
2026-05-06 10:14 49.02624 2.61862 2665 ft 224 kts 80°
2026-05-06 10:14 49.02756 2.64327 3007 ft 242 kts 81°
2026-05-06 10:14 49.02893 2.66958 3420 ft 255 kts 82°
2026-05-06 10:15 49.03033 2.69684 3999 ft 261 kts 82°
2026-05-06 10:15 49.03179 2.72458 4634 ft 264 kts 80°
2026-05-06 10:15 49.03685 2.75114 5239 ft 261 kts 57°
2026-05-06 10:15 49.04848 2.77187 5868 ft 258 kts 34°
2026-05-06 10:16 49.06454 2.78353 6475 ft 257 kts 11°
2026-05-06 10:16 49.08238 2.78443 7031 ft 260 kts 348°
2026-05-06 10:16 49.09925 2.77439 7552 ft 265 kts 326°
2026-05-06 10:16 49.11228 2.75456 8127 ft 269 kts 302°
2026-05-06 10:17 49.11905 2.72797 8685 ft 273 kts 278°
2026-05-06 10:17 49.11804 2.69911 9268 ft 276 kts 254°
2026-05-06 10:17 49.11097 2.67171 9845 ft 279 kts 245°
2026-05-06 10:17 49.10263 2.64456 10229 ft 288 kts 245°
2026-05-06 10:18 49.09409 2.61600 10457 ft 303 kts 246°
2026-05-06 10:18 49.08534 2.58574 10695 ft 321 kts 247°
2026-05-06 10:18 49.07626 2.55367 10892 ft 338 kts 248°
2026-05-06 10:18 49.06679 2.51994 11093 ft 354 kts 248°
2026-05-06 10:19 49.05706 2.48515 11299 ft 369 kts 248°
2026-05-06 10:19 49.04671 2.44807 11506 ft 382 kts 248°
2026-05-06 10:19 49.03622 2.41047 11843 ft 388 kts 248°
2026-05-06 10:19 49.02636 2.37249 12206 ft 392 kts 253°
2026-05-06 10:20 49.02175 2.33160 12635 ft 394 kts 268°
2026-05-06 10:20 49.02193 2.28987 13158 ft 394 kts 272°
2026-05-06 10:20 49.02277 2.24791 13572 ft 398 kts 272°
2026-05-06 10:20 49.02354 2.20571 13913 ft 401 kts 271°
2026-05-06 10:21 49.02416 2.16306 14189 ft 404 kts 272°
2026-05-06 10:21 49.02471 2.12010 14509 ft 407 kts 272°
2026-05-06 10:21 49.02520 2.07694 14906 ft 409 kts 271°
2026-05-06 10:21 49.02567 2.03338 15304 ft 413 kts 271°
2026-05-06 10:22 49.02614 1.98948 15723 ft 416 kts 271°
2026-05-06 10:22 49.02661 1.94518 16131 ft 421 kts 271°
2026-05-06 10:22 49.02709 1.90048 16564 ft 423 kts 271°
2026-05-06 10:22 49.02751 1.85548 17009 ft 426 kts 271°
2026-05-06 10:23 49.02791 1.81019 17406 ft 430 kts 271°
2026-05-06 10:23 49.02831 1.76446 17807 ft 433 kts 271°
2026-05-06 10:23 49.02869 1.71838 18169 ft 437 kts 271°
2026-05-06 10:23 49.02906 1.67187 18492 ft 441 kts 271°
2026-05-06 10:24 49.02940 1.62502 18823 ft 444 kts 271°
2026-05-06 10:24 49.02975 1.57784 19156 ft 446 kts 271°
2026-05-06 10:24 49.03008 1.53053 19493 ft 448 kts 271°
2026-05-06 10:24 49.03037 1.48303 19809 ft 450 kts 271°
2026-05-06 10:25 49.03064 1.43529 20093 ft 452 kts 271°
2026-05-06 10:25 49.03088 1.38732 20396 ft 454 kts 271°
2026-05-06 10:25 49.03111 1.33904 20777 ft 457 kts 271°
2026-05-06 10:25 49.03133 1.29044 21222 ft 460 kts 271°
2026-05-06 10:26 49.03146 1.25807 21526 ft 462 kts 272°
2026-05-06 10:26 49.03203 1.20907 21931 ft 464 kts 273°
2026-05-06 10:26 49.03352 1.15995 22234 ft 464 kts 274°
2026-05-06 10:26 49.03502 1.11090 22457 ft 464 kts 274°
2026-05-06 10:27 49.03653 1.06163 22649 ft 466 kts 274°
2026-05-06 10:27 49.03801 1.01226 22819 ft 467 kts 274°
2026-05-06 10:27 49.03949 0.96281 23035 ft 468 kts 274°
2026-05-06 10:27 49.04095 0.91315 23330 ft 470 kts 274°
2026-05-06 10:28 49.04239 0.86329 23635 ft 471 kts 273°
2026-05-06 10:28 49.04379 0.81364 24048 ft 468 kts 274°
2026-05-06 10:28 49.04520 0.76405 24397 ft 468 kts 274°
2026-05-06 10:28 49.04659 0.71461 24764 ft 467 kts 273°
2026-05-06 10:29 49.04795 0.66514 25116 ft 466 kts 274°
2026-05-06 10:29 49.04925 0.61577 25433 ft 466 kts 274°
2026-05-06 10:29 49.05056 0.56644 25752 ft 465 kts 273°
2026-05-06 10:29 49.05184 0.51719 26079 ft 465 kts 273°
2026-05-06 10:30 49.05310 0.46798 26415 ft 464 kts 274°
2026-05-06 10:30 49.05432 0.41883 26758 ft 463 kts 273°
2026-05-06 10:30 49.05550 0.36982 27153 ft 462 kts 273°
2026-05-06 10:30 49.05666 0.32095 27538 ft 461 kts 273°
2026-05-06 10:31 49.05779 0.27213 27908 ft 460 kts 273°
2026-05-06 10:31 49.05895 0.22349 28257 ft 459 kts 273°
2026-05-06 10:31 49.06007 0.17497 28562 ft 458 kts 274°
2026-05-06 10:31 49.06119 0.12646 28865 ft 457 kts 273°
2026-05-06 10:32 49.06228 0.07807 29166 ft 457 kts 273°
2026-05-06 10:32 49.06334 0.02971 29447 ft 456 kts 273°
2026-05-06 10:32 49.06435 -0.01858 29732 ft 455 kts 273°
2026-05-06 10:32 49.06535 -0.06677 29966 ft 455 kts 273°
2026-05-06 10:33 49.06732 -0.16308 29992 ft 454 kts 273°
2026-05-06 10:33 49.06912 -0.25862 29964 ft 454 kts 273°
2026-05-06 10:34 49.07087 -0.35489 29964 ft 454 kts 272°
2026-05-06 10:34 49.07260 -0.45117 29963 ft 454 kts 273°
2026-05-06 10:35 49.07426 -0.54745 29961 ft 454 kts 272°
2026-05-06 10:35 49.07585 -0.64371 29966 ft 454 kts 273°
2026-05-06 10:36 49.07722 -0.74001 29969 ft 454 kts 272°
2026-05-06 10:36 49.07863 -0.83631 29965 ft 454 kts 272°
2026-05-06 10:37 49.07997 -0.93246 29962 ft 452 kts 271°
2026-05-06 10:37 49.08120 -1.02804 29968 ft 450 kts 271°
2026-05-06 10:38 49.08240 -1.12344 29973 ft 449 kts 271°
2026-05-06 10:38 49.08907 -1.21803 29976 ft 450 kts 283°
2026-05-06 10:39 49.10406 -1.31065 29976 ft 450 kts 284°
2026-05-06 10:39 49.11920 -1.40243 29974 ft 444 kts 284°
2026-05-06 10:40 49.13406 -1.49400 29975 ft 444 kts 283°
2026-05-06 10:40 49.14857 -1.58581 29977 ft 444 kts 283°
2026-05-06 10:41 49.16323 -1.67741 29981 ft 442 kts 283°
2026-05-06 10:41 49.17764 -1.76898 29985 ft 444 kts 283°
2026-05-06 10:42 49.19208 -1.86008 29988 ft 445 kts 283°
2026-05-06 10:42 49.20646 -1.95202 29979 ft 444 kts 283°
2026-05-06 10:43 49.22077 -2.04382 29972 ft 444 kts 284°
2026-05-06 10:44 49.24429 -2.18099 29984 ft 445 kts 284°
2026-05-06 10:44 49.25994 -2.27258 29985 ft 446 kts 285°
2026-05-06 10:45 49.27559 -2.36458 29990 ft 447 kts 285°
2026-05-06 10:45 49.29120 -2.45683 29992 ft 448 kts 285°
2026-05-06 10:46 49.30676 -2.54938 29993 ft 449 kts 285°
2026-05-06 10:46 49.32217 -2.64200 29994 ft 449 kts 285°
2026-05-06 10:47 49.33763 -2.73447 29991 ft 446 kts 285°
2026-05-06 10:47 49.35292 -2.82660 29985 ft 446 kts 285°
2026-05-06 10:48 49.36805 -2.91880 29985 ft 446 kts 284°
2026-05-06 10:48 49.38320 -3.01107 29985 ft 446 kts 284°
2026-05-06 10:49 49.39817 -3.10276 29985 ft 446 kts 284°
2026-05-06 10:49 49.41307 -3.19501 29985 ft 444 kts 284°
2026-05-06 10:50 49.42787 -3.28715 29986 ft 444 kts 284°
2026-05-06 10:50 49.44272 -3.37935 29986 ft 444 kts 284°
2026-05-06 10:51 49.45743 -3.47163 29987 ft 444 kts 284°
2026-05-06 10:51 49.47203 -3.56395 29994 ft 444 kts 284°
2026-05-06 10:52 49.48661 -3.65624 29987 ft 444 kts 284°
2026-05-06 10:52 49.50099 -3.74875 29988 ft 445 kts 284°
2026-05-06 10:53 49.51539 -3.84156 29995 ft 445 kts 284°
2026-05-06 10:53 49.52960 -3.93426 29994 ft 444 kts 284°
2026-05-06 10:54 49.54374 -4.02693 29997 ft 445 kts 284°
2026-05-06 10:54 49.55795 -4.11990 29997 ft 447 kts 284°
2026-05-06 10:55 49.57212 -4.21312 30000 ft 447 kts 284°
2026-05-06 10:55 49.58673 -4.30615 29997 ft 446 kts 288°
2026-05-06 10:56 49.61414 -4.39134 30007 ft 444 kts 303°
2026-05-06 10:56 49.64744 -4.47164 30002 ft 444 kts 303°
2026-05-06 10:57 49.68054 -4.55212 30011 ft 444 kts 302°
2026-05-06 10:57 49.71345 -4.63272 30007 ft 444 kts 302°
2026-05-06 10:58 49.74608 -4.71294 30006 ft 444 kts 302°
2026-05-06 10:58 49.77891 -4.79388 30007 ft 445 kts 302°
2026-05-06 10:59 49.81173 -4.87510 30006 ft 445 kts 302°
2026-05-06 10:59 49.84448 -4.95635 30009 ft 445 kts 302°
2026-05-06 11:00 49.87713 -5.03783 30013 ft 445 kts 301°
2026-05-06 11:00 49.90981 -5.11918 30001 ft 444 kts 302°
2026-05-06 11:01 49.94248 -5.20061 29997 ft 444 kts 302°
2026-05-06 11:01 49.97490 -5.28239 29995 ft 445 kts 301°
2026-05-06 11:02 50.00742 -5.36416 29996 ft 445 kts 301°
2026-05-06 11:02 50.03982 -5.44600 29994 ft 445 kts 301°
2026-05-06 11:03 50.07216 -5.52803 29997 ft 444 kts 301°
2026-05-06 11:03 50.10427 -5.60996 29999 ft 443 kts 301°
2026-05-06 11:04 50.13643 -5.69192 30020 ft 443 kts 301°
2026-05-06 11:04 50.16829 -5.77347 30021 ft 443 kts 301°
2026-05-06 11:05 50.20031 -5.85573 30020 ft 444 kts 301°
2026-05-06 11:05 50.23223 -5.93810 30024 ft 444 kts 301°
2026-05-06 11:06 50.26406 -6.02069 30028 ft 443 kts 300°
2026-05-06 11:06 50.29584 -6.10305 30035 ft 442 kts 300°
2026-05-06 11:07 50.32747 -6.18543 30038 ft 442 kts 300°
2026-05-06 11:07 50.35885 -6.26811 30038 ft 442 kts 300°
2026-05-06 11:08 50.39038 -6.35074 30035 ft 442 kts 300°
2026-05-06 11:08 50.42183 -6.43349 30035 ft 442 kts 300°
2026-05-06 11:09 50.45323 -6.51628 30043 ft 442 kts 300°
2026-05-06 11:09 50.48447 -6.59913 30047 ft 440 kts 300°
2026-05-06 11:10 50.51578 -6.68181 30046 ft 440 kts 300°
2026-05-06 11:10 50.54690 -6.76464 30042 ft 440 kts 299°
2026-05-06 11:11 50.57796 -6.84761 30043 ft 440 kts 300°
2026-05-06 11:11 50.60895 -6.93074 30049 ft 440 kts 299°
2026-05-06 11:12 50.63993 -7.01388 30040 ft 440 kts 299°
2026-05-06 11:12 50.67076 -7.09722 30061 ft 439 kts 299°
2026-05-06 11:13 50.70129 -7.17966 30051 ft 438 kts 299°
2026-05-06 11:13 50.73203 -7.26270 30051 ft 438 kts 299°
2026-05-06 11:14 50.76261 -7.34591 30046 ft 438 kts 299°
2026-05-06 11:14 50.79308 -7.42921 30047 ft 438 kts 298°
2026-05-06 11:15 50.82353 -7.51263 30046 ft 438 kts 298°
2026-05-06 11:15 50.85387 -7.59620 30046 ft 438 kts 298°
2026-05-06 11:16 50.88426 -7.67978 30045 ft 438 kts 299°
2026-05-06 11:16 50.90965 -7.74918 30044 ft 438 kts 299°
2026-05-06 11:17 50.93997 -7.83296 30046 ft 438 kts 298°
2026-05-06 11:17 50.97017 -7.91690 30043 ft 438 kts 298°
2026-05-06 11:18 50.99981 -8.00139 30039 ft 437 kts 294°
2026-05-06 11:18 51.02288 -8.09063 30040 ft 437 kts 290°
2026-05-06 11:19 51.04510 -8.18061 30036 ft 438 kts 290°
2026-05-06 11:19 51.06741 -8.27060 30035 ft 437 kts 290°
2026-05-06 11:20 51.09334 -8.37516 30036 ft 437 kts 290°
2026-05-06 11:20 51.11185 -8.45067 30037 ft 437 kts 290°
2026-05-06 11:21 51.13429 -8.54070 30033 ft 437 kts 291°
2026-05-06 11:21 51.15650 -8.63022 30035 ft 438 kts 290°
2026-05-06 11:22 51.17858 -8.72074 30037 ft 438 kts 290°
2026-05-06 11:22 51.20065 -8.81125 30038 ft 438 kts 290°
2026-05-06 11:23 51.22265 -8.90188 30038 ft 438 kts 290°
2026-05-06 11:23 51.24456 -8.99274 30047 ft 440 kts 290°
2026-05-06 11:24 51.26647 -9.08408 30043 ft 441 kts 290°
2026-05-06 11:24 51.28841 -9.17549 30042 ft 441 kts 290°
2026-05-06 11:25 51.31008 -9.26716 30038 ft 441 kts 290°
2026-05-06 11:25 51.33179 -9.35877 30041 ft 441 kts 290°
2026-05-06 11:26 51.35361 -9.45038 30045 ft 441 kts 290°
2026-05-06 11:26 51.37526 -9.54216 30042 ft 441 kts 290°
2026-05-06 11:27 51.39674 -9.63409 30042 ft 441 kts 290°
2026-05-06 11:27 51.41828 -9.72628 30042 ft 443 kts 290°
2026-05-06 11:28 51.43979 -9.81882 30038 ft 443 kts 290°
2026-05-06 11:28 51.46109 -9.91148 30037 ft 443 kts 290°
2026-05-06 11:29 51.48251 -10.00410 30040 ft 443 kts 290°
2026-05-06 11:29 51.50379 -10.09692 30042 ft 443 kts 290°
2026-05-06 11:30 51.52504 -10.18972 30044 ft 443 kts 290°
2026-05-06 11:30 51.54615 -10.28256 30050 ft 442 kts 290°
2026-05-06 11:31 51.56711 -10.37547 30047 ft 442 kts 290°
2026-05-06 11:31 51.58798 -10.46853 30055 ft 443 kts 290°
2026-05-06 11:32 51.60842 -10.56121 30050 ft 443 kts 290°
2026-05-06 11:32 51.62930 -10.65443 30055 ft 443 kts 290°
2026-05-06 11:33 51.65033 -10.74767 30056 ft 443 kts 291°
2026-05-06 11:33 51.67119 -10.84136 30057 ft 444 kts 290°
2026-05-06 11:34 51.69188 -10.93527 30058 ft 446 kts 290°
2026-05-06 11:34 51.71257 -11.02949 30060 ft 445 kts 290°
2026-05-06 11:35 51.73316 -11.12359 30065 ft 445 kts 290°
2026-05-06 11:35 51.75361 -11.21767 30057 ft 445 kts 290°
2026-05-06 11:36 51.77424 -11.31321 30061 ft 454 kts 291°
2026-05-06 11:36 51.79499 -11.40963 30065 ft 454 kts 291°
2026-05-06 11:37 51.81567 -11.50607 30065 ft 454 kts 291°
2026-05-06 11:37 51.83629 -11.60262 30067 ft 454 kts 291°
2026-05-06 11:38 51.85682 -11.69926 30067 ft 454 kts 291°
2026-05-06 11:38 51.87726 -11.79604 30063 ft 456 kts 291°
2026-05-06 11:39 51.89771 -11.89337 30065 ft 457 kts 291°
2026-05-06 11:39 51.91788 -11.99036 30065 ft 457 kts 291°
2026-05-06 11:40 51.93818 -12.08792 30067 ft 457 kts 291°
2026-05-06 11:40 51.95846 -12.18553 30067 ft 457 kts 291°
2026-05-06 11:41 51.97865 -12.28326 30072 ft 457 kts 291°
2026-05-06 11:41 51.99871 -12.38117 30066 ft 458 kts 291°
2026-05-06 11:42 52.01876 -12.47939 30071 ft 458 kts 291°
2026-05-06 11:42 52.03875 -12.57776 30071 ft 459 kts 291°
2026-05-06 11:43 52.05871 -12.67611 30074 ft 459 kts 291°
2026-05-06 11:43 52.07855 -12.77463 30065 ft 457 kts 291°
2026-05-06 11:44 52.10784 -12.92150 30070 ft 456 kts 291°
2026-05-06 11:44 52.12741 -13.01978 30071 ft 457 kts 291°
2026-05-06 11:45 52.14682 -13.11816 30069 ft 457 kts 291°
2026-05-06 11:45 52.16621 -13.21667 30071 ft 457 kts 291°
2026-05-06 11:46 52.18550 -13.31524 30071 ft 457 kts 290°
2026-05-06 11:46 52.20472 -13.41391 30070 ft 457 kts 290°
2026-05-06 11:47 52.22376 -13.51275 30066 ft 457 kts 290°
2026-05-06 11:47 52.24276 -13.61161 30068 ft 456 kts 291°
2026-05-06 11:48 52.26160 -13.70964 30068 ft 455 kts 290°
2026-05-06 11:48 52.28047 -13.80833 30066 ft 456 kts 290°
2026-05-06 11:49 52.29886 -13.90741 30069 ft 456 kts 290°
2026-05-06 11:49 52.31766 -14.00632 30062 ft 456 kts 290°
2026-05-06 11:50 52.33642 -14.10530 30071 ft 456 kts 290°
2026-05-06 11:50 52.35495 -14.20447 30068 ft 456 kts 290°
2026-05-06 11:51 52.37332 -14.30379 30064 ft 456 kts 290°
2026-05-06 11:51 52.39167 -14.40284 30066 ft 452 kts 290°
2026-05-06 11:52 52.40983 -14.50149 30070 ft 453 kts 290°
2026-05-06 11:52 52.42783 -14.60030 30058 ft 452 kts 290°
2026-05-06 11:53 52.44582 -14.69899 30066 ft 452 kts 290°
2026-05-06 11:53 52.46363 -14.79780 30070 ft 452 kts 290°
2026-05-06 11:54 52.48129 -14.89670 30069 ft 452 kts 290°
2026-05-06 11:54 52.49885 -14.99576 30395 ft 453 kts 287°
2026-05-06 11:55 52.50552 -15.04633 30640 ft 454 kts 285°
2026-05-06 11:55 52.51171 -15.09650 30805 ft 455 kts 284°
2026-05-06 11:55 52.51792 -15.14750 30990 ft 456 kts 284°
2026-05-06 11:55 52.52405 -15.19847 31224 ft 455 kts 284°
2026-05-06 11:56 52.53010 -15.24941 31465 ft 454 kts 284°
2026-05-06 11:56 52.53621 -15.30023 31699 ft 453 kts 284°
2026-05-06 11:56 52.54230 -15.35094 31914 ft 452 kts 284°
2026-05-06 11:56 52.54831 -15.40165 32081 ft 452 kts 284°
2026-05-06 11:57 52.56033 -15.50286 32083 ft 451 kts 284°
2026-05-06 11:57 52.57215 -15.60403 32071 ft 451 kts 284°
2026-05-06 11:58 52.58397 -15.70530 32064 ft 451 kts 284°
2026-05-06 11:58 52.59570 -15.80662 32063 ft 451 kts 284°
2026-05-06 11:59 52.60732 -15.90804 32065 ft 451 kts 284°
2026-05-06 11:59 52.61885 -16.00945 32063 ft 451 kts 284°
2026-05-06 12:00 52.63025 -16.11099 32065 ft 451 kts 284°
2026-05-06 12:00 52.64137 -16.21241 32059 ft 448 kts 283°
2026-05-06 12:01 52.65258 -16.31321 32057 ft 447 kts 283°
2026-05-06 12:01 52.66372 -16.41396 32062 ft 447 kts 283°
2026-05-06 12:02 52.67466 -16.51482 32062 ft 447 kts 283°
2026-05-06 12:02 52.68556 -16.61570 32059 ft 447 kts 283°
2026-05-06 12:03 52.69632 -16.71668 32059 ft 447 kts 283°
2026-05-06 12:03 52.70703 -16.81774 32051 ft 447 kts 282°
2026-05-06 12:04 52.71763 -16.91880 32056 ft 447 kts 282°
2026-05-06 12:04 52.72822 -17.01991 32059 ft 447 kts 282°
2026-05-06 12:05 52.73693 -17.10394 32055 ft 447 kts 282°
2026-05-06 12:05 52.74913 -17.22146 32058 ft 445 kts 282°
2026-05-06 12:06 52.75940 -17.32210 32058 ft 445 kts 282°
2026-05-06 12:06 52.76796 -17.40649 32050 ft 445 kts 282°
2026-05-06 12:07 52.77815 -17.50737 32054 ft 446 kts 281°
2026-05-06 12:07 52.78817 -17.60835 32056 ft 446 kts 281°
2026-05-06 12:08 52.79795 -17.70944 32063 ft 445 kts 281°
2026-05-06 12:08 52.80787 -17.81047 32057 ft 445 kts 281°
2026-05-06 12:09 52.81773 -17.91155 32055 ft 446 kts 281°
2026-05-06 12:09 52.82724 -18.01214 32054 ft 446 kts 281°
2026-05-06 12:10 52.83694 -18.11332 32056 ft 445 kts 281°
2026-05-06 12:10 52.84636 -18.21458 32058 ft 445 kts 280°
2026-05-06 12:11 52.85587 -18.31553 32050 ft 444 kts 280°
2026-05-06 12:11 52.86516 -18.41654 32050 ft 444 kts 280°
2026-05-06 12:12 52.87442 -18.51752 32046 ft 444 kts 279°
2026-05-06 12:12 52.88362 -18.61869 32049 ft 444 kts 279°
2026-05-06 12:13 52.89271 -18.71995 32050 ft 445 kts 279°
2026-05-06 12:13 52.90174 -18.82119 32050 ft 445 kts 279°
2026-05-06 12:14 52.91077 -18.92250 32053 ft 445 kts 279°
2026-05-06 12:14 52.91958 -19.02390 32050 ft 445 kts 279°
2026-05-06 12:15 52.92816 -19.12535 32050 ft 444 kts 278°
2026-05-06 12:15 52.93657 -19.22686 32061 ft 444 kts 278°
2026-05-06 12:16 52.94502 -19.32820 32054 ft 444 kts 278°
2026-05-06 12:16 52.95344 -19.42952 32053 ft 444 kts 278°
2026-05-06 12:17 52.96186 -19.53089 32051 ft 444 kts 278°
2026-05-06 12:17 52.97015 -19.63232 32041 ft 444 kts 278°
2026-05-06 12:18 52.97832 -19.73394 32052 ft 445 kts 277°
2026-05-06 12:18 52.98668 -19.83568 32051 ft 445 kts 277°
2026-05-06 12:19 52.99456 -19.93751 32054 ft 445 kts 277°
2026-05-06 12:19 53.00129 -20.03961 32053 ft 445 kts 274°
2026-05-06 12:20 53.00543 -20.14213 32053 ft 445 kts 274°
2026-05-06 12:20 53.00975 -20.24394 32051 ft 445 kts 274°
2026-05-06 12:21 53.01398 -20.34640 32056 ft 444 kts 273°
2026-05-06 12:21 53.01786 -20.44876 32053 ft 444 kts 273°
2026-05-06 12:22 53.02170 -20.55114 32058 ft 444 kts 273°
2026-05-06 12:22 53.02560 -20.65350 32059 ft 444 kts 273°
2026-05-06 12:23 53.02928 -20.75586 32056 ft 444 kts 272°
2026-05-06 12:23 53.03267 -20.85840 32052 ft 445 kts 272°
2026-05-06 12:24 53.03617 -20.96095 32056 ft 445 kts 272°
2026-05-06 12:24 53.03950 -21.06357 32056 ft 445 kts 272°
2026-05-06 12:25 53.04290 -21.16619 32056 ft 445 kts 272°
2026-05-06 12:25 53.04618 -21.26883 32056 ft 445 kts 272°
2026-05-06 12:26 53.04939 -21.37142 32056 ft 445 kts 272°
2026-05-06 12:26 53.05246 -21.47407 32067 ft 445 kts 272°
2026-05-06 12:27 53.05546 -21.57650 32058 ft 443 kts 272°
2026-05-06 12:27 53.05833 -21.67885 32060 ft 443 kts 271°
2026-05-06 12:28 53.06114 -21.78121 32057 ft 443 kts 271°
2026-05-06 12:28 53.06393 -21.88362 32063 ft 443 kts 271°
2026-05-06 12:29 53.06651 -21.98606 32062 ft 443 kts 271°
2026-05-06 12:29 53.06908 -22.08848 32062 ft 443 kts 271°
2026-05-06 12:30 53.07160 -22.19092 32062 ft 443 kts 271°
2026-05-06 12:30 53.07393 -22.29338 32062 ft 443 kts 271°
2026-05-06 12:31 53.07623 -22.39583 32065 ft 443 kts 271°
2026-05-06 12:31 53.07839 -22.49839 32065 ft 444 kts 270°
2026-05-06 12:32 53.08052 -22.60114 32069 ft 445 kts 270°
2026-05-06 12:32 53.08245 -22.70387 32073 ft 444 kts 270°
2026-05-06 12:33 53.08448 -22.80577 32069 ft 444 kts 270°
2026-05-06 12:33 53.08626 -22.90838 32068 ft 444 kts 270°
2026-05-06 12:34 53.08806 -23.01099 32076 ft 444 kts 270°
2026-05-06 12:34 53.08975 -23.11392 32071 ft 446 kts 269°